Regional Weather Roundup
Issued by NWS

Current Version | Previous Version | Text Only | Print | Product List | Glossary On
Versions: 1 2 3 4 5 6 7 8 9 10 11 12 13 14 15 16 17 18 19 20 21 22 23 24 25 26 27 28
000
ASCA42 TJSJ 201510
RWRPR
PUERTO RICO/U.S. VIRGIN ISLANDS HOURLY WEATHER ROUNDUP
NATIONAL WEATHER SERVICE SAN JUAN PR
1100 AM AST WED JUN 20 2018

PRZ001>002-007>008-010-201600-
PUERTO RICO

CITY           SKY/WX    TMP DP  RH WIND       PRES   REMARKS
SAN JUAN LMM   PTSUNNY   86  72  62 S10       30.04R HX  92
AGUADILLA      MOSUNNY   81  75  83 NW6       30.06S
CEIBA          MOSUNNY   84  79  84 S13       30.07S HX  96
$$

VIZ001>002-201600-
U.S. VIRGIN ISLANDS

CITY           SKY/WX    TMP DP  RH WIND       PRES   REMARKS
CHARLOTTE AMA  MOSUNNY   84  75  74 SE13      30.05R HX  92
CHRISTIANSTED  PTSUNNY   84  79  84 SE12      30.06S HX  96
$$

HOURLY WEATHER ROUNDUP FOR THE NEWS MEDIA

CITY           SKY/WX    TMP DP  RH WIND       PRES   REMARKS
ORLANDO        FAIR      87  74  64 VRB7      29.98F HX  95
NEW YORK       PTSUNNY   76  55  48 SE8       29.90F
NEWARK         PTSUNNY   77  49  37 VRB3      29.89F
CHICAGO        CLOUDY    70  62  76 CALM      29.89S
HARTFORD       FAIR      75  63  66 SW14      29.88S
BOSTON         PTSUNNY   73  51  46 SE5       29.87F
DALLAS         LGT RAIN  77  74  90 CALM      29.92S FOG
PHILADELPHIA   FAIR      81  64  56 CALM      29.87F
LOS ANGELES    CLOUDY    64  58  80 CALM      29.94R FOG
WASHINGTON DC  PTSUNNY   79  62  56 CALM      29.89S



USA.gov is the U.S. government's official web portal to all federal, state and local government web resources and services.